Index of /20260504/WXO-DD/model_gdps/15km/12/225
Name Last modified Size Description
Parent Directory -
20260504T12Z_MSC_GDPS_AirTemp_AGL-120m_LatLon0.15_PT225H.grib2 2026-05-04 16:55 911K
20260504T12Z_MSC_GDPS_AirTemp_AGL-2m_LatLon0.15_PT225H.grib2 2026-05-04 16:55 1.0M
20260504T12Z_MSC_GDPS_AirTemp_AGL-40m_LatLon0.15_PT225H.grib2 2026-05-04 16:55 816K
20260504T12Z_MSC_GDPS_AirTemp_AGL-80m_LatLon0.15_PT225H.grib2 2026-05-04 16:55 921K
20260504T12Z_MSC_GDPS_AirTemp_IsbL-0001_LatLon0.15_PT225H.grib2 2026-05-04 16:55 666K
20260504T12Z_MSC_GDPS_AirTemp_IsbL-0005_LatLon0.15_PT225H.grib2 2026-05-04 16:55 699K
20260504T12Z_MSC_GDPS_AirTemp_IsbL-0500_LatLon0.15_PT225H.grib2 2026-05-04 16:55 1.0M
20260504T12Z_MSC_GDPS_AirTemp_IsbL-0700_LatLon0.15_PT225H.grib2 2026-05-04 16:55 965K
20260504T12Z_MSC_GDPS_AirTemp_IsbL-0850_LatLon0.15_PT225H.grib2 2026-05-04 16:55 1.1M
20260504T12Z_MSC_GDPS_AirTemp_IsbL-0925_LatLon0.15_PT225H.grib2 2026-05-04 16:55 1.1M
20260504T12Z_MSC_GDPS_AirTemp_IsbL-1000_LatLon0.15_PT225H.grib2 2026-05-04 16:55 1.1M
20260504T12Z_MSC_GDPS_Albedo_Sfc_LatLon0.15_PT225H.grib2 2026-05-04 16:55 247K
20260504T12Z_MSC_GDPS_ConvectivePrecip-Accum_Sfc_LatLon0.15_PT225H.grib2 2026-05-04 16:55 4.0M
20260504T12Z_MSC_GDPS_DewPointDepression_AGL-2m_LatLon0.15_PT225H.grib2 2026-05-04 16:55 761K
20260504T12Z_MSC_GDPS_DewPointDepression_IsbL-0500_LatLon0.15_PT225H.grib2 2026-05-04 16:55 1.0M
20260504T12Z_MSC_GDPS_DewPointDepression_IsbL-0700_LatLon0.15_PT225H.grib2 2026-05-04 16:55 1.1M
20260504T12Z_MSC_GDPS_DewPointDepression_IsbL-0850_LatLon0.15_PT225H.grib2 2026-05-04 16:55 1.1M
20260504T12Z_MSC_GDPS_DewPointDepression_IsbL-0925_LatLon0.15_PT225H.grib2 2026-05-04 16:55 1.0M
20260504T12Z_MSC_GDPS_DewPointDepression_IsbL-1000_LatLon0.15_PT225H.grib2 2026-05-04 16:55 969K
20260504T12Z_MSC_GDPS_DewPoint_AGL-2m_LatLon0.15_PT225H.grib2 2026-05-04 16:55 604K
20260504T12Z_MSC_GDPS_DownwardLongwaveRadiationFlux-Accum_Sfc_LatLon0.15_PT225H.grib2 2026-05-04 16:55 734K
20260504T12Z_MSC_GDPS_DownwardShortwaveRadiationFlux-Accum_Sfc_LatLon0.15_PT225H.grib2 2026-05-04 16:55 902K
20260504T12Z_MSC_GDPS_FreezingRain-Accum_Sfc_LatLon0.15_PT225H.grib2 2026-05-04 16:55 565K
20260504T12Z_MSC_GDPS_GeopotentialHeight_IsbL-0001_LatLon0.15_PT225H.grib2 2026-05-04 16:55 462K
20260504T12Z_MSC_GDPS_GeopotentialHeight_IsbL-0005_LatLon0.15_PT225H.grib2 2026-05-04 16:55 361K
20260504T12Z_MSC_GDPS_GeopotentialHeight_IsbL-0500_LatLon0.15_PT225H.grib2 2026-05-04 16:55 531K
20260504T12Z_MSC_GDPS_GeopotentialHeight_IsbL-0700_LatLon0.15_PT225H.grib2 2026-05-04 16:55 689K
20260504T12Z_MSC_GDPS_GeopotentialHeight_IsbL-0850_LatLon0.15_PT225H.grib2 2026-05-04 16:55 715K
20260504T12Z_MSC_GDPS_GeopotentialHeight_IsbL-0925_LatLon0.15_PT225H.grib2 2026-05-04 16:55 736K
20260504T12Z_MSC_GDPS_GeopotentialHeight_IsbL-1000_LatLon0.15_PT225H.grib2 2026-05-04 16:55 603K
20260504T12Z_MSC_GDPS_IcePellets-Accum_Sfc_LatLon0.15_PT225H.grib2 2026-05-04 16:55 274K
20260504T12Z_MSC_GDPS_LatentHeatNetFlux_Sfc_LatLon0.15_PT225H.grib2 2026-05-04 16:55 682K
20260504T12Z_MSC_GDPS_NetLongwaveRadiationFlux-Accum_Sfc_LatLon0.15_PT225H.grib2 2026-05-04 16:55 930K
20260504T12Z_MSC_GDPS_NetShortwaveRadiationFlux-Accum_Sfc_LatLon0.15_PT225H.grib2 2026-05-04 16:55 884K
20260504T12Z_MSC_GDPS_O3MixingRatio_Sfc_LatLon0.15_PT225H.grib2 2026-05-04 17:19 2.2M
20260504T12Z_MSC_GDPS_O3_EAtm_LatLon0.15_PT225H.grib2 2026-05-04 17:19 2.4M
20260504T12Z_MSC_GDPS_PlanetaryBoundaryLayerHeight_Sfc_LatLon0.15_PT225H.grib2 2026-05-04 16:55 2.4M
20260504T12Z_MSC_GDPS_Precip-Accum_Sfc_LatLon0.15_PT225H.grib2 2026-05-04 16:55 5.0M
20260504T12Z_MSC_GDPS_PrecipRate_Sfc_LatLon0.15_PT225H.grib2 2026-05-04 16:55 3.0M
20260504T12Z_MSC_GDPS_Pressure_MSL_LatLon0.15_PT225H.grib2 2026-05-04 16:55 829K
20260504T12Z_MSC_GDPS_Pressure_Sfc_LatLon0.15_PT225H.grib2 2026-05-04 16:55 1.1M
20260504T12Z_MSC_GDPS_RadiativeTemp_Sfc_LatLon0.15_PT225H.grib2 2026-05-04 16:55 486K
20260504T12Z_MSC_GDPS_Rain-Accum_Sfc_LatLon0.15_PT225H.grib2 2026-05-04 16:55 4.0M
20260504T12Z_MSC_GDPS_RelativeHumidity_AGL-2m_LatLon0.15_PT225H.grib2 2026-05-04 16:55 1.1M
20260504T12Z_MSC_GDPS_Runoff-Accum_Sfc_LatLon0.15_PT225H.grib2 2026-05-04 16:55 140K
20260504T12Z_MSC_GDPS_SensibleHeatNetFlux_Sfc_LatLon0.15_PT225H.grib2 2026-05-04 16:55 451K
20260504T12Z_MSC_GDPS_Snow-Accum_Sfc_LatLon0.15_PT225H.grib2 2026-05-04 16:55 2.2M
20260504T12Z_MSC_GDPS_SnowDepth_Sfc_LatLon0.15_PT225H.grib2 2026-05-04 16:55 1.7M
20260504T12Z_MSC_GDPS_SoilTemp_DBS-0to10cm_LatLon0.15_PT225H.grib2 2026-05-04 16:55 520K
20260504T12Z_MSC_GDPS_SoilTemp_Sfc_LatLon0.15_PT225H.grib2 2026-05-04 16:55 580K
20260504T12Z_MSC_GDPS_SoilVolumetricWaterContent_DBS-0to10cm_LatLon0.15_PT225H.grib2 2026-05-04 16:55 606K
20260504T12Z_MSC_GDPS_SoilVolumetricWaterContent_DBS-0to1cm_LatLon0.15_PT225H.grib2 2026-05-04 16:55 652K
20260504T12Z_MSC_GDPS_SpecificHumidity_AGL-120m_LatLon0.15_PT225H.grib2 2026-05-04 16:55 1.1M
20260504T12Z_MSC_GDPS_SpecificHumidity_AGL-2m_LatLon0.15_PT225H.grib2 2026-05-04 16:55 1.2M
20260504T12Z_MSC_GDPS_SpecificHumidity_AGL-40m_LatLon0.15_PT225H.grib2 2026-05-04 16:55 1.1M
20260504T12Z_MSC_GDPS_SpecificHumidity_AGL-80m_LatLon0.15_PT225H.grib2 2026-05-04 16:55 1.1M
20260504T12Z_MSC_GDPS_SpecificHumidity_IsbL-0001_LatLon0.15_PT225H.grib2 2026-05-04 16:55 1.1M
20260504T12Z_MSC_GDPS_SpecificHumidity_IsbL-0005_LatLon0.15_PT225H.grib2 2026-05-04 16:55 1.3M
20260504T12Z_MSC_GDPS_SpecificHumidity_IsbL-0500_LatLon0.15_PT225H.grib2 2026-05-04 16:55 1.5M
20260504T12Z_MSC_GDPS_SpecificHumidity_IsbL-0700_LatLon0.15_PT225H.grib2 2026-05-04 16:55 1.7M
20260504T12Z_MSC_GDPS_SpecificHumidity_IsbL-0850_LatLon0.15_PT225H.grib2 2026-05-04 16:55 2.0M
20260504T12Z_MSC_GDPS_SpecificHumidity_IsbL-0925_LatLon0.15_PT225H.grib2 2026-05-04 16:55 1.6M
20260504T12Z_MSC_GDPS_SpecificHumidity_IsbL-1000_LatLon0.15_PT225H.grib2 2026-05-04 16:55 1.5M
20260504T12Z_MSC_GDPS_SpecificHumidity_Sfc_LatLon0.15_PT225H.grib2 2026-05-04 16:55 676K
20260504T12Z_MSC_GDPS_Thickness_IsbL-0850to0700_LatLon0.15_PT225H.grib2 2026-05-04 16:55 473K
20260504T12Z_MSC_GDPS_Thickness_IsbL-1000to0500_LatLon0.15_PT225H.grib2 2026-05-04 16:55 374K
20260504T12Z_MSC_GDPS_Thickness_IsbL-1000to0850_LatLon0.15_PT225H.grib2 2026-05-04 16:55 492K
20260504T12Z_MSC_GDPS_TotalCloudCover_Sfc_LatLon0.15_PT225H.grib2 2026-05-04 16:55 833K
20260504T12Z_MSC_GDPS_UVIndex-ClearSky_Sfc_LatLon0.15_PT225H.grib2 2026-05-04 17:19 1.0M
20260504T12Z_MSC_GDPS_UVIndex_Sfc_LatLon0.15_PT225H.grib2 2026-05-04 17:19 1.5M
20260504T12Z_MSC_GDPS_UpwardLongwaveRadiationFlux_NTAtm_LatLon0.15_PT225H.grib2 2026-05-04 16:55 839K
20260504T12Z_MSC_GDPS_VerticalVelocity_IsbL-0500_LatLon0.15_PT225H.grib2 2026-05-04 16:55 1.0M
20260504T12Z_MSC_GDPS_VerticalVelocity_IsbL-0700_LatLon0.15_PT225H.grib2 2026-05-04 16:55 1.1M
20260504T12Z_MSC_GDPS_VerticalVelocity_IsbL-0850_LatLon0.15_PT225H.grib2 2026-05-04 16:55 1.6M
20260504T12Z_MSC_GDPS_WindDir_AGL-10m_LatLon0.15_PT225H.grib2 2026-05-04 16:55 1.3M
20260504T12Z_MSC_GDPS_WindDir_AGL-120m_LatLon0.15_PT225H.grib2 2026-05-04 16:55 1.3M
20260504T12Z_MSC_GDPS_WindDir_AGL-40m_LatLon0.15_PT225H.grib2 2026-05-04 16:55 1.4M
20260504T12Z_MSC_GDPS_WindDir_AGL-80m_LatLon0.15_PT225H.grib2 2026-05-04 16:55 1.4M
20260504T12Z_MSC_GDPS_WindDir_IsbL-0001_LatLon0.15_PT225H.grib2 2026-05-04 16:55 651K
20260504T12Z_MSC_GDPS_WindDir_IsbL-0005_LatLon0.15_PT225H.grib2 2026-05-04 16:55 795K
20260504T12Z_MSC_GDPS_WindDir_IsbL-0500_LatLon0.15_PT225H.grib2 2026-05-04 16:55 1.4M
20260504T12Z_MSC_GDPS_WindDir_IsbL-0700_LatLon0.15_PT225H.grib2 2026-05-04 16:55 1.6M
20260504T12Z_MSC_GDPS_WindDir_IsbL-0850_LatLon0.15_PT225H.grib2 2026-05-04 16:55 1.9M
20260504T12Z_MSC_GDPS_WindDir_IsbL-0925_LatLon0.15_PT225H.grib2 2026-05-04 16:55 2.0M
20260504T12Z_MSC_GDPS_WindDir_IsbL-1000_LatLon0.15_PT225H.grib2 2026-05-04 16:55 2.0M
20260504T12Z_MSC_GDPS_WindGust-Max_AGL-10m_LatLon0.15_PT225H.grib2 2026-05-04 16:55 1.8M
20260504T12Z_MSC_GDPS_WindGust-Min_AGL-10m_LatLon0.15_PT225H.grib2 2026-05-04 16:55 2.2M
20260504T12Z_MSC_GDPS_WindGust_AGL-10m_LatLon0.15_PT225H.grib2 2026-05-04 16:55 2.2M
20260504T12Z_MSC_GDPS_WindSpeed_AGL-10m_LatLon0.15_PT225H.grib2 2026-05-04 16:55 1.1M
20260504T12Z_MSC_GDPS_WindSpeed_AGL-120m_LatLon0.15_PT225H.grib2 2026-05-04 16:55 1.2M
20260504T12Z_MSC_GDPS_WindSpeed_AGL-40m_LatLon0.15_PT225H.grib2 2026-05-04 16:55 1.2M
20260504T12Z_MSC_GDPS_WindSpeed_AGL-80m_LatLon0.15_PT225H.grib2 2026-05-04 16:55 1.2M
20260504T12Z_MSC_GDPS_WindSpeed_IsbL-0001_LatLon0.15_PT225H.grib2 2026-05-04 16:55 504K
20260504T12Z_MSC_GDPS_WindSpeed_IsbL-0005_LatLon0.15_PT225H.grib2 2026-05-04 16:55 692K
20260504T12Z_MSC_GDPS_WindSpeed_IsbL-0500_LatLon0.15_PT225H.grib2 2026-05-04 16:55 1.1M
20260504T12Z_MSC_GDPS_WindSpeed_IsbL-0700_LatLon0.15_PT225H.grib2 2026-05-04 16:55 1.5M
20260504T12Z_MSC_GDPS_WindSpeed_IsbL-0850_LatLon0.15_PT225H.grib2 2026-05-04 16:55 1.7M
20260504T12Z_MSC_GDPS_WindSpeed_IsbL-0925_LatLon0.15_PT225H.grib2 2026-05-04 16:55 1.9M
20260504T12Z_MSC_GDPS_WindSpeed_IsbL-1000_LatLon0.15_PT225H.grib2 2026-05-04 16:55 1.8M
20260504T12Z_MSC_GDPS_WindU_AGL-10m_LatLon0.15_PT225H.grib2 2026-05-04 16:55 1.3M
20260504T12Z_MSC_GDPS_WindU_AGL-120m_LatLon0.15_PT225H.grib2 2026-05-04 16:55 1.0M
20260504T12Z_MSC_GDPS_WindU_AGL-40m_LatLon0.15_PT225H.grib2 2026-05-04 16:55 971K
20260504T12Z_MSC_GDPS_WindU_AGL-80m_LatLon0.15_PT225H.grib2 2026-05-04 16:55 1.0M
20260504T12Z_MSC_GDPS_WindU_IsbL-0001_LatLon0.15_PT225H.grib2 2026-05-04 16:55 604K
20260504T12Z_MSC_GDPS_WindU_IsbL-0005_LatLon0.15_PT225H.grib2 2026-05-04 16:55 692K
20260504T12Z_MSC_GDPS_WindU_IsbL-0500_LatLon0.15_PT225H.grib2 2026-05-04 16:55 1.1M
20260504T12Z_MSC_GDPS_WindU_IsbL-0700_LatLon0.15_PT225H.grib2 2026-05-04 16:55 1.2M
20260504T12Z_MSC_GDPS_WindU_IsbL-0850_LatLon0.15_PT225H.grib2 2026-05-04 16:55 1.4M
20260504T12Z_MSC_GDPS_WindU_IsbL-0925_LatLon0.15_PT225H.grib2 2026-05-04 16:55 1.5M
20260504T12Z_MSC_GDPS_WindU_IsbL-1000_LatLon0.15_PT225H.grib2 2026-05-04 16:55 1.4M
20260504T12Z_MSC_GDPS_WindV_AGL-10m_LatLon0.15_PT225H.grib2 2026-05-04 16:55 1.6M
20260504T12Z_MSC_GDPS_WindV_AGL-120m_LatLon0.15_PT225H.grib2 2026-05-04 16:55 1.0M
20260504T12Z_MSC_GDPS_WindV_AGL-40m_LatLon0.15_PT225H.grib2 2026-05-04 16:55 969K
20260504T12Z_MSC_GDPS_WindV_AGL-80m_LatLon0.15_PT225H.grib2 2026-05-04 16:55 1.0M
20260504T12Z_MSC_GDPS_WindV_IsbL-0001_LatLon0.15_PT225H.grib2 2026-05-04 16:55 724K
20260504T12Z_MSC_GDPS_WindV_IsbL-0005_LatLon0.15_PT225H.grib2 2026-05-04 16:55 786K
20260504T12Z_MSC_GDPS_WindV_IsbL-0500_LatLon0.15_PT225H.grib2 2026-05-04 16:55 891K
20260504T12Z_MSC_GDPS_WindV_IsbL-0700_LatLon0.15_PT225H.grib2 2026-05-04 16:55 1.2M
20260504T12Z_MSC_GDPS_WindV_IsbL-0850_LatLon0.15_PT225H.grib2 2026-05-04 16:55 1.4M
20260504T12Z_MSC_GDPS_WindV_IsbL-0925_LatLon0.15_PT225H.grib2 2026-05-04 16:55 1.5M
20260504T12Z_MSC_GDPS_WindV_IsbL-1000_LatLon0.15_PT225H.grib2 2026-05-04 16:55 1.4M